#datetime,building,power
2023-09-10T00:00:00,ths,12.99
2023-09-10T00:01:00,ths,10.52
2023-09-10T00:02:00,ths,10.56
2023-09-10T00:03:00,ths,10.57
2023-09-10T00:04:00,ths,10.59
2023-09-10T00:05:00,ths,10.77
2023-09-10T00:06:00,ths,10.53
2023-09-10T00:07:00,ths,8.65
2023-09-10T00:08:00,ths,8.71
2023-09-10T00:09:00,ths,8.82
2023-09-10T00:10:00,ths,8.73
2023-09-10T00:11:00,ths,8.76
2023-09-10T00:12:00,ths,8.76
2023-09-10T00:13:00,ths,8.83
2023-09-10T00:14:00,ths,8.80
2023-09-10T00:15:00,ths,8.79
2023-09-10T00:16:00,ths,10.73
2023-09-10T00:17:00,ths,10.71
2023-09-10T00:18:00,ths,10.69
2023-09-10T00:19:00,ths,10.70
2023-09-10T00:20:00,ths,10.81
2023-09-10T00:21:00,ths,10.66
2023-09-10T00:22:00,ths,10.58
2023-09-10T00:23:00,ths,10.44
2023-09-10T00:24:00,ths,10.54
2023-09-10T00:25:00,ths,12.41
2023-09-10T00:26:00,ths,10.59
2023-09-10T00:27:00,ths,10.61
2023-09-10T00:28:00,ths,10.71
2023-09-10T00:29:00,ths,8.85
2023-09-10T00:30:00,ths,8.76
2023-09-10T00:31:00,ths,8.80
2023-09-10T00:32:00,ths,10.64
2023-09-10T00:33:00,ths,10.68
2023-09-10T00:34:00,ths,12.58
2023-09-10T00:35:00,ths,10.60
2023-09-10T00:36:00,ths,12.53
2023-09-10T00:37:00,ths,12.48
2023-09-10T00:38:00,ths,8.69
2023-09-10T00:39:00,ths,8.72
2023-09-10T00:40:00,ths,10.66
2023-09-10T00:41:00,ths,10.63
2023-09-10T00:42:00,ths,10.83
2023-09-10T00:43:00,ths,13.31
2023-09-10T00:44:00,ths,13.38
2023-09-10T00:45:00,ths,15.42
2023-09-10T00:46:00,ths,15.43
2023-09-10T00:47:00,ths,15.35
2023-09-10T00:48:00,ths,14.76
2023-09-10T00:49:00,ths,10.67
2023-09-10T00:50:00,ths,8.60
2023-09-10T00:51:00,ths,8.92
2023-09-10T00:52:00,ths,8.84
2023-09-10T00:53:00,ths,8.84
2023-09-10T00:54:00,ths,8.83
2023-09-10T00:55:00,ths,8.79
2023-09-10T00:56:00,ths,8.88
2023-09-10T00:57:00,ths,8.79
2023-09-10T00:58:00,ths,8.73
2023-09-10T00:59:00,ths,10.61
2023-09-10T01:00:00,ths,10.52
2023-09-10T01:01:00,ths,10.63
2023-09-10T01:02:00,ths,10.61
2023-09-10T01:03:00,ths,10.15
2023-09-10T01:04:00,ths,10.16
2023-09-10T01:05:00,ths,8.31
2023-09-10T01:06:00,ths,8.25
2023-09-10T01:07:00,ths,8.24
2023-09-10T01:08:00,ths,8.33
2023-09-10T01:09:00,ths,8.43
2023-09-10T01:10:00,ths,8.40
2023-09-10T01:11:00,ths,8.43
2023-09-10T01:12:00,ths,10.32
2023-09-10T01:13:00,ths,10.29
2023-09-10T01:14:00,ths,10.23
2023-09-10T01:15:00,ths,10.21
2023-09-10T01:16:00,ths,10.22
2023-09-10T01:17:00,ths,10.44
2023-09-10T01:18:00,ths,10.41
2023-09-10T01:19:00,ths,10.21
2023-09-10T01:20:00,ths,8.23
2023-09-10T01:21:00,ths,8.18
2023-09-10T01:22:00,ths,8.13
2023-09-10T01:23:00,ths,8.11
2023-09-10T01:24:00,ths,8.07
2023-09-10T01:25:00,ths,10.04
2023-09-10T01:26:00,ths,10.04
2023-09-10T01:27:00,ths,10.30
2023-09-10T01:28:00,ths,12.49
2023-09-10T01:29:00,ths,10.53
2023-09-10T01:30:00,ths,10.46
2023-09-10T01:31:00,ths,10.62
2023-09-10T01:32:00,ths,10.62
2023-09-10T01:33:00,ths,8.41
2023-09-10T01:34:00,ths,8.39
2023-09-10T01:35:00,ths,8.35
2023-09-10T01:36:00,ths,8.39
2023-09-10T01:37:00,ths,8.42
2023-09-10T01:38:00,ths,8.34
2023-09-10T01:39:00,ths,8.25
2023-09-10T01:40:00,ths,8.37
2023-09-10T01:41:00,ths,8.27
2023-09-10T01:42:00,ths,10.24
2023-09-10T01:43:00,ths,10.11
2023-09-10T01:44:00,ths,10.14
2023-09-10T01:45:00,ths,10.30
2023-09-10T01:46:00,ths,10.22
2023-09-10T01:47:00,ths,12.08
2023-09-10T01:48:00,ths,10.14
2023-09-10T01:49:00,ths,10.20
2023-09-10T01:50:00,ths,10.17
2023-09-10T01:51:00,ths,10.11
2023-09-10T01:52:00,ths,10.17
2023-09-10T01:53:00,ths,10.42
2023-09-10T01:54:00,ths,10.26
2023-09-10T01:55:00,ths,8.32
2023-09-10T01:56:00,ths,8.29
2023-09-10T01:57:00,ths,8.38
2023-09-10T01:58:00,ths,8.44
2023-09-10T01:59:00,ths,8.46
2023-09-10T02:00:00,ths,8.34
2023-09-10T02:01:00,ths,8.28
2023-09-10T02:02:00,ths,8.27
2023-09-10T02:03:00,ths,10.09
2023-09-10T02:04:00,ths,10.02
2023-09-10T02:05:00,ths,9.87
2023-09-10T02:06:00,ths,8.06
2023-09-10T02:07:00,ths,8.02
2023-09-10T02:08:00,ths,8.01
2023-09-10T02:09:00,ths,7.96
2023-09-10T02:10:00,ths,8.06
2023-09-10T02:11:00,ths,8.07
2023-09-10T02:12:00,ths,8.05
2023-09-10T02:13:00,ths,8.05
2023-09-10T02:14:00,ths,8.30
2023-09-10T02:15:00,ths,8.03
2023-09-10T02:16:00,ths,8.06
2023-09-10T02:17:00,ths,8.02
2023-09-10T02:18:00,ths,7.92
2023-09-10T02:19:00,ths,7.89
2023-09-10T02:20:00,ths,7.86
2023-09-10T02:21:00,ths,9.77
2023-09-10T02:22:00,ths,9.87
2023-09-10T02:23:00,ths,11.93
2023-09-10T02:24:00,ths,11.87
2023-09-10T02:25:00,ths,11.92
2023-09-10T02:26:00,ths,11.90
2023-09-10T02:27:00,ths,12.87
2023-09-10T02:28:00,ths,12.40
2023-09-10T02:29:00,ths,8.39
2023-09-10T02:30:00,ths,8.29
2023-09-10T02:31:00,ths,8.31
2023-09-10T02:32:00,ths,8.32
2023-09-10T02:33:00,ths,8.27
2023-09-10T02:34:00,ths,8.19
2023-09-10T02:35:00,ths,8.21
2023-09-10T02:36:00,ths,8.21
2023-09-10T02:37:00,ths,8.16
2023-09-10T02:38:00,ths,8.16
2023-09-10T02:39:00,ths,8.15
2023-09-10T02:40:00,ths,8.14
2023-09-10T02:41:00,ths,8.07
2023-09-10T02:42:00,ths,8.07
2023-09-10T02:43:00,ths,11.24
2023-09-10T02:44:00,ths,10.41
2023-09-10T02:45:00,ths,10.48
2023-09-10T02:46:00,ths,10.62
2023-09-10T02:47:00,ths,10.74
2023-09-10T02:48:00,ths,10.79
2023-09-10T02:49:00,ths,8.62
2023-09-10T02:50:00,ths,8.60
2023-09-10T02:51:00,ths,8.38
2023-09-10T02:52:00,ths,10.16
2023-09-10T02:53:00,ths,10.12
2023-09-10T02:54:00,ths,9.84
2023-09-10T02:55:00,ths,11.96
2023-09-10T02:56:00,ths,12.01
2023-09-10T02:57:00,ths,11.80
2023-09-10T02:58:00,ths,12.03
2023-09-10T02:59:00,ths,11.89
2023-09-10T03:00:00,ths,9.88
2023-09-10T03:01:00,ths,10.12
2023-09-10T03:02:00,ths,10.23
2023-09-10T03:03:00,ths,8.22
2023-09-10T03:04:00,ths,8.37
2023-09-10T03:05:00,ths,8.41
2023-09-10T03:06:00,ths,8.37
2023-09-10T03:07:00,ths,8.62
2023-09-10T03:08:00,ths,10.65
2023-09-10T03:09:00,ths,10.64
2023-09-10T03:10:00,ths,10.70
2023-09-10T03:11:00,ths,10.54
2023-09-10T03:12:00,ths,10.35
2023-09-10T03:13:00,ths,10.55
2023-09-10T03:14:00,ths,10.55
2023-09-10T03:15:00,ths,8.46
2023-09-10T03:16:00,ths,8.44
2023-09-10T03:17:00,ths,8.41
2023-09-10T03:18:00,ths,10.53
2023-09-10T03:19:00,ths,10.56
2023-09-10T03:20:00,ths,10.60
2023-09-10T03:21:00,ths,10.46
2023-09-10T03:22:00,ths,10.54
2023-09-10T03:23:00,ths,12.38
2023-09-10T03:24:00,ths,12.69
2023-09-10T03:25:00,ths,10.32
2023-09-10T03:26:00,ths,10.21
2023-09-10T03:27:00,ths,10.21
2023-09-10T03:28:00,ths,10.11
2023-09-10T03:29:00,ths,12.28
2023-09-10T03:30:00,ths,11.95
2023-09-10T03:31:00,ths,10.03
2023-09-10T03:32:00,ths,9.97
2023-09-10T03:33:00,ths,9.83
2023-09-10T03:34:00,ths,9.86
2023-09-10T03:35:00,ths,7.88
2023-09-10T03:36:00,ths,8.19
2023-09-10T03:37:00,ths,8.21
2023-09-10T03:38:00,ths,8.14
2023-09-10T03:39:00,ths,8.14
2023-09-10T03:40:00,ths,8.13
2023-09-10T03:41:00,ths,8.11
2023-09-10T03:42:00,ths,8.08
2023-09-10T03:43:00,ths,7.88
2023-09-10T03:44:00,ths,7.85
2023-09-10T03:45:00,ths,7.85
2023-09-10T03:46:00,ths,8.27
2023-09-10T03:47:00,ths,9.68
2023-09-10T03:48:00,ths,9.69
2023-09-10T03:49:00,ths,9.72
2023-09-10T03:50:00,ths,9.75
2023-09-10T03:51:00,ths,9.69
2023-09-10T03:52:00,ths,9.76
2023-09-10T03:53:00,ths,9.78
2023-09-10T03:54:00,ths,9.81
2023-09-10T03:55:00,ths,9.75
2023-09-10T03:56:00,ths,10.02
2023-09-10T03:57:00,ths,10.08
2023-09-10T03:58:00,ths,8.00
2023-09-10T03:59:00,ths,8.00
2023-09-10T04:00:00,ths,7.99
2023-09-10T04:01:00,ths,7.89
2023-09-10T04:02:00,ths,7.95
2023-09-10T04:03:00,ths,7.84
2023-09-10T04:04:00,ths,7.86
2023-09-10T04:05:00,ths,7.91
2023-09-10T04:06:00,ths,7.87
2023-09-10T04:07:00,ths,7.85
2023-09-10T04:08:00,ths,7.89
2023-09-10T04:09:00,ths,7.90
2023-09-10T04:10:00,ths,7.83
2023-09-10T04:11:00,ths,7.85
2023-09-10T04:12:00,ths,7.84
2023-09-10T04:13:00,ths,8.04
2023-09-10T04:14:00,ths,8.14
2023-09-10T04:15:00,ths,8.22
2023-09-10T04:16:00,ths,8.16
2023-09-10T04:17:00,ths,10.06
2023-09-10T04:18:00,ths,10.13
2023-09-10T04:19:00,ths,10.12
2023-09-10T04:20:00,ths,10.16
2023-09-10T04:21:00,ths,12.32
2023-09-10T04:22:00,ths,13.97
2023-09-10T04:23:00,ths,14.22
2023-09-10T04:24:00,ths,14.25
2023-09-10T04:25:00,ths,12.18
2023-09-10T04:26:00,ths,8.18
2023-09-10T04:27:00,ths,7.97
2023-09-10T04:28:00,ths,7.99
2023-09-10T04:29:00,ths,10.42
2023-09-10T04:30:00,ths,10.35
2023-09-10T04:31:00,ths,10.47
2023-09-10T04:32:00,ths,10.43
2023-09-10T04:33:00,ths,10.48
2023-09-10T04:34:00,ths,8.04
2023-09-10T04:35:00,ths,8.03
2023-09-10T04:36:00,ths,8.03
2023-09-10T04:37:00,ths,8.04
2023-09-10T04:38:00,ths,7.87
2023-09-10T04:39:00,ths,7.92
2023-09-10T04:40:00,ths,7.96
2023-09-10T04:41:00,ths,7.83
2023-09-10T04:42:00,ths,7.83
2023-09-10T04:43:00,ths,7.82
2023-09-10T04:44:00,ths,7.78
2023-09-10T04:45:00,ths,7.76
2023-09-10T04:46:00,ths,7.73
2023-09-10T04:47:00,ths,7.76
2023-09-10T04:48:00,ths,7.86
2023-09-10T04:49:00,ths,7.92
2023-09-10T04:50:00,ths,9.78
2023-09-10T04:51:00,ths,9.78
2023-09-10T04:52:00,ths,9.75
2023-09-10T04:53:00,ths,9.68
2023-09-10T04:54:00,ths,9.76
2023-09-10T04:55:00,ths,9.77
2023-09-10T04:56:00,ths,9.97
2023-09-10T04:57:00,ths,9.95
2023-09-10T04:58:00,ths,7.96
2023-09-10T04:59:00,ths,7.93
2023-09-10T05:00:00,ths,7.88
2023-09-10T05:01:00,ths,7.81
2023-09-10T05:02:00,ths,7.86
2023-09-10T05:03:00,ths,7.81
2023-09-10T05:04:00,ths,7.79
2023-09-10T05:05:00,ths,7.68
2023-09-10T05:06:00,ths,7.84
2023-09-10T05:07:00,ths,7.86
2023-09-10T05:08:00,ths,7.85
2023-09-10T05:09:00,ths,9.63
2023-09-10T05:10:00,ths,9.91
2023-09-10T05:11:00,ths,9.90
2023-09-10T05:12:00,ths,10.03
2023-09-10T05:13:00,ths,10.07
2023-09-10T05:14:00,ths,8.05
2023-09-10T05:15:00,ths,8.06
2023-09-10T05:16:00,ths,8.00
2023-09-10T05:17:00,ths,8.02
2023-09-10T05:18:00,ths,7.99
2023-09-10T05:19:00,ths,8.04
2023-09-10T05:20:00,ths,7.96
2023-09-10T05:21:00,ths,7.94
2023-09-10T05:22:00,ths,7.94
2023-09-10T05:23:00,ths,9.92
2023-09-10T05:24:00,ths,9.94
2023-09-10T05:25:00,ths,10.02
2023-09-10T05:26:00,ths,10.04
2023-09-10T05:27:00,ths,10.19
2023-09-10T05:28:00,ths,10.12
2023-09-10T05:29:00,ths,10.13
2023-09-10T05:30:00,ths,10.10
2023-09-10T05:31:00,ths,8.22
2023-09-10T05:32:00,ths,8.03
2023-09-10T05:33:00,ths,8.06
2023-09-10T05:34:00,ths,8.07
2023-09-10T05:35:00,ths,8.07
2023-09-10T05:36:00,ths,8.01
2023-09-10T05:37:00,ths,8.00
2023-09-10T05:38:00,ths,8.02
2023-09-10T05:39:00,ths,8.06
2023-09-10T05:40:00,ths,8.05
2023-09-10T05:41:00,ths,7.93
2023-09-10T05:42:00,ths,8.02
2023-09-10T05:43:00,ths,7.98
2023-09-10T05:44:00,ths,8.02
2023-09-10T05:45:00,ths,7.91
2023-09-10T05:46:00,ths,7.93
2023-09-10T05:47:00,ths,9.80
2023-09-10T05:48:00,ths,9.81
2023-09-10T05:49:00,ths,12.02
2023-09-10T05:50:00,ths,12.05
2023-09-10T05:51:00,ths,12.16
2023-09-10T05:52:00,ths,12.11
2023-09-10T05:53:00,ths,10.16
2023-09-10T05:54:00,ths,9.91
2023-09-10T05:55:00,ths,9.84
2023-09-10T05:56:00,ths,9.89
2023-09-10T05:57:00,ths,9.88
2023-09-10T05:58:00,ths,9.93
2023-09-10T05:59:00,ths,9.94
2023-09-10T06:00:00,ths,10.19
2023-09-10T06:01:00,ths,10.14
2023-09-10T06:02:00,ths,8.06
2023-09-10T06:03:00,ths,8.06
2023-09-10T06:04:00,ths,7.99
2023-09-10T06:05:00,ths,7.93
2023-09-10T06:06:00,ths,7.93
2023-09-10T06:07:00,ths,7.96
2023-09-10T06:08:00,ths,8.12
2023-09-10T06:09:00,ths,8.09
2023-09-10T06:10:00,ths,7.81
2023-09-10T06:11:00,ths,7.88
2023-09-10T06:12:00,ths,7.84
2023-09-10T06:13:00,ths,7.75
2023-09-10T06:14:00,ths,7.78
2023-09-10T06:15:00,ths,7.75
2023-09-10T06:16:00,ths,7.79
2023-09-10T06:17:00,ths,7.80
2023-09-10T06:18:00,ths,7.81
2023-09-10T06:19:00,ths,7.82
2023-09-10T06:20:00,ths,7.68
2023-09-10T06:21:00,ths,7.64
2023-09-10T06:22:00,ths,7.73
2023-09-10T06:23:00,ths,7.71
2023-09-10T06:24:00,ths,7.69
2023-09-10T06:25:00,ths,9.73
2023-09-10T06:26:00,ths,9.46
2023-09-10T06:27:00,ths,9.50
2023-09-10T06:28:00,ths,9.55
2023-09-10T06:29:00,ths,9.47
2023-09-10T06:30:00,ths,11.35
2023-09-10T06:31:00,ths,11.30
2023-09-10T06:32:00,ths,11.56
2023-09-10T06:33:00,ths,11.52
2023-09-10T06:34:00,ths,9.67
2023-09-10T06:35:00,ths,9.46
2023-09-10T06:36:00,ths,7.70
2023-09-10T06:37:00,ths,7.70
2023-09-10T06:38:00,ths,7.66
2023-09-10T06:39:00,ths,7.67
2023-09-10T06:40:00,ths,7.73
2023-09-10T06:41:00,ths,7.72
2023-09-10T06:42:00,ths,7.62
2023-09-10T06:43:00,ths,10.04
2023-09-10T06:44:00,ths,10.02
2023-09-10T06:45:00,ths,10.08
2023-09-10T06:46:00,ths,10.16
2023-09-10T06:47:00,ths,10.14
2023-09-10T06:48:00,ths,7.83
2023-09-10T06:49:00,ths,7.78
2023-09-10T06:50:00,ths,7.76
2023-09-10T06:51:00,ths,7.80
2023-09-10T06:52:00,ths,7.73
2023-09-10T06:53:00,ths,7.69
2023-09-10T06:54:00,ths,7.71
2023-09-10T06:55:00,ths,7.67
2023-09-10T06:56:00,ths,9.82
2023-09-10T06:57:00,ths,9.80
2023-09-10T06:58:00,ths,9.91
2023-09-10T06:59:00,ths,11.80
2023-09-10T07:00:00,ths,9.66
2023-09-10T07:01:00,ths,9.61
2023-09-10T07:02:00,ths,9.56
2023-09-10T07:03:00,ths,9.50
2023-09-10T07:04:00,ths,9.58
2023-09-10T07:05:00,ths,9.83
2023-09-10T07:06:00,ths,9.79
2023-09-10T07:07:00,ths,7.67
2023-09-10T07:08:00,ths,7.63
2023-09-10T07:09:00,ths,7.67
2023-09-10T07:10:00,ths,7.61
2023-09-10T07:11:00,ths,7.75
2023-09-10T07:12:00,ths,7.77
2023-09-10T07:13:00,ths,7.80
2023-09-10T07:14:00,ths,7.77
2023-09-10T07:15:00,ths,7.78
2023-09-10T07:16:00,ths,7.75
2023-09-10T07:17:00,ths,7.74
2023-09-10T07:18:00,ths,7.70
2023-09-10T07:19:00,ths,7.61
2023-09-10T07:20:00,ths,7.69
2023-09-10T07:21:00,ths,7.65
2023-09-10T07:22:00,ths,9.61
2023-09-10T07:23:00,ths,9.67
2023-09-10T07:24:00,ths,9.60
2023-09-10T07:25:00,ths,9.56
2023-09-10T07:26:00,ths,9.56
2023-09-10T07:27:00,ths,9.77
2023-09-10T07:28:00,ths,7.70
2023-09-10T07:29:00,ths,7.73
2023-09-10T07:30:00,ths,7.71
2023-09-10T07:31:00,ths,7.71
2023-09-10T07:32:00,ths,9.65
2023-09-10T07:33:00,ths,9.64
2023-09-10T07:34:00,ths,9.61
2023-09-10T07:35:00,ths,9.70
2023-09-10T07:36:00,ths,9.81
2023-09-10T07:37:00,ths,9.72
2023-09-10T07:38:00,ths,9.71
2023-09-10T07:39:00,ths,9.91
2023-09-10T07:40:00,ths,7.83
2023-09-10T07:41:00,ths,7.78
2023-09-10T07:42:00,ths,7.80
2023-09-10T07:43:00,ths,7.71
2023-09-10T07:44:00,ths,7.72
2023-09-10T07:45:00,ths,7.80
2023-09-10T07:46:00,ths,10.17
2023-09-10T07:47:00,ths,10.28
2023-09-10T07:48:00,ths,10.23
2023-09-10T07:49:00,ths,10.13
2023-09-10T07:50:00,ths,10.21
2023-09-10T07:51:00,ths,8.71
2023-09-10T07:52:00,ths,7.83
2023-09-10T07:53:00,ths,7.83
2023-09-10T07:54:00,ths,7.59
2023-09-10T07:55:00,ths,7.59
2023-09-10T07:56:00,ths,7.60
2023-09-10T07:57:00,ths,7.59
2023-09-10T07:58:00,ths,7.62
2023-09-10T07:59:00,ths,8.16
2023-09-10T08:00:00,ths,7.62
2023-09-10T08:01:00,ths,7.60
2023-09-10T08:02:00,ths,9.54
2023-09-10T08:03:00,ths,9.61
2023-09-10T08:04:00,ths,9.72
2023-09-10T08:05:00,ths,9.71
2023-09-10T08:06:00,ths,9.74
2023-09-10T08:07:00,ths,9.73
2023-09-10T08:08:00,ths,9.74
2023-09-10T08:09:00,ths,9.86
2023-09-10T08:10:00,ths,7.76
2023-09-10T08:11:00,ths,7.64
2023-09-10T08:12:00,ths,7.52
2023-09-10T08:13:00,ths,7.55
2023-09-10T08:14:00,ths,7.54
2023-09-10T08:15:00,ths,7.59
2023-09-10T08:16:00,ths,7.46
2023-09-10T08:17:00,ths,7.45
2023-09-10T08:18:00,ths,7.46
2023-09-10T08:19:00,ths,7.44
2023-09-10T08:20:00,ths,7.38
2023-09-10T08:21:00,ths,7.54
2023-09-10T08:22:00,ths,7.60
2023-09-10T08:23:00,ths,7.66
2023-09-10T08:24:00,ths,7.64
2023-09-10T08:25:00,ths,7.64
2023-09-10T08:26:00,ths,7.69
2023-09-10T08:27:00,ths,7.69
2023-09-10T08:28:00,ths,7.65
2023-09-10T08:29:00,ths,7.62
2023-09-10T08:30:00,ths,7.57
2023-09-10T08:31:00,ths,7.60
2023-09-10T08:32:00,ths,7.55
2023-09-10T08:33:00,ths,7.57
2023-09-10T08:34:00,ths,7.51
2023-09-10T08:35:00,ths,11.39
2023-09-10T08:36:00,ths,11.38
2023-09-10T08:37:00,ths,11.33
2023-09-10T08:38:00,ths,11.33
2023-09-10T08:39:00,ths,11.38
2023-09-10T08:40:00,ths,11.44
2023-09-10T08:41:00,ths,9.54
2023-09-10T08:42:00,ths,9.64
2023-09-10T08:43:00,ths,7.63
2023-09-10T08:44:00,ths,7.60
2023-09-10T08:45:00,ths,7.66
2023-09-10T08:46:00,ths,7.63
2023-09-10T08:47:00,ths,7.61
2023-09-10T08:48:00,ths,7.57
2023-09-10T08:49:00,ths,7.54
2023-09-10T08:50:00,ths,7.50
2023-09-10T08:51:00,ths,7.73
2023-09-10T08:52:00,ths,7.66
2023-09-10T08:53:00,ths,7.63
2023-09-10T08:54:00,ths,7.63
2023-09-10T08:55:00,ths,7.53
2023-09-10T08:56:00,ths,7.52
2023-09-10T08:57:00,ths,7.42
2023-09-10T08:58:00,ths,9.91
2023-09-10T08:59:00,ths,10.03
2023-09-10T09:00:00,ths,10.01
2023-09-10T09:01:00,ths,10.04
2023-09-10T09:02:00,ths,10.06
2023-09-10T09:03:00,ths,8.50
2023-09-10T09:04:00,ths,7.59
2023-09-10T09:05:00,ths,7.54
2023-09-10T09:06:00,ths,8.25
2023-09-10T09:07:00,ths,7.72
2023-09-10T09:08:00,ths,9.64
2023-09-10T09:09:00,ths,11.86
2023-09-10T09:10:00,ths,11.77
2023-09-10T09:11:00,ths,11.77
2023-09-10T09:12:00,ths,11.79
2023-09-10T09:13:00,ths,11.84
2023-09-10T09:14:00,ths,9.78
2023-09-10T09:15:00,ths,10.51
2023-09-10T09:16:00,ths,8.00
2023-09-10T09:17:00,ths,7.99
2023-09-10T09:18:00,ths,7.91
2023-09-10T09:19:00,ths,7.95
2023-09-10T09:20:00,ths,7.93
2023-09-10T09:21:00,ths,7.87
2023-09-10T09:22:00,ths,7.86
2023-09-10T09:23:00,ths,7.86
2023-09-10T09:24:00,ths,7.76
2023-09-10T09:25:00,ths,7.70
2023-09-10T09:26:00,ths,7.68
2023-09-10T09:27:00,ths,7.67
2023-09-10T09:28:00,ths,7.68
2023-09-10T09:29:00,ths,7.66
2023-09-10T09:30:00,ths,9.65
2023-09-10T09:31:00,ths,9.61
2023-09-10T09:32:00,ths,9.57
2023-09-10T09:33:00,ths,9.66
2023-09-10T09:34:00,ths,9.68
2023-09-10T09:35:00,ths,9.79
2023-09-10T09:36:00,ths,9.74
2023-09-10T09:37:00,ths,9.87
2023-09-10T09:38:00,ths,9.78
2023-09-10T09:39:00,ths,9.61
2023-09-10T09:40:00,ths,9.67
2023-09-10T09:41:00,ths,9.58
2023-09-10T09:42:00,ths,9.44
2023-09-10T09:43:00,ths,9.45
2023-09-10T09:44:00,ths,9.38
2023-09-10T09:45:00,ths,7.42
2023-09-10T09:46:00,ths,7.53
2023-09-10T09:47:00,ths,7.40
2023-09-10T09:48:00,ths,7.37
2023-09-10T09:49:00,ths,7.36
2023-09-10T09:50:00,ths,9.88
2023-09-10T09:51:00,ths,9.92
2023-09-10T09:52:00,ths,10.00
2023-09-10T09:53:00,ths,11.99
2023-09-10T09:54:00,ths,12.07
2023-09-10T09:55:00,ths,9.59
2023-09-10T09:56:00,ths,9.55
2023-09-10T09:57:00,ths,9.54
2023-09-10T09:58:00,ths,9.61
2023-09-10T09:59:00,ths,9.62
2023-09-10T10:00:00,ths,9.72
2023-09-10T10:01:00,ths,9.53
2023-09-10T10:02:00,ths,7.52
2023-09-10T10:03:00,ths,7.41
2023-09-10T10:04:00,ths,7.44
2023-09-10T10:05:00,ths,7.53
2023-09-10T10:06:00,ths,7.64
2023-09-10T10:07:00,ths,7.64
2023-09-10T10:08:00,ths,7.61
2023-09-10T10:09:00,ths,7.63
2023-09-10T10:10:00,ths,7.67
2023-09-10T10:11:00,ths,7.61
2023-09-10T10:12:00,ths,7.67
2023-09-10T10:13:00,ths,7.74
2023-09-10T10:14:00,ths,7.70
2023-09-10T10:15:00,ths,7.83
2023-09-10T10:16:00,ths,9.67
2023-09-10T10:17:00,ths,9.79
2023-09-10T10:18:00,ths,9.79
2023-09-10T10:19:00,ths,9.77
2023-09-10T10:20:00,ths,11.87
2023-09-10T10:21:00,ths,11.92
2023-09-10T10:22:00,ths,12.10
2023-09-10T10:23:00,ths,12.18
2023-09-10T10:24:00,ths,12.00
2023-09-10T10:25:00,ths,7.74
2023-09-10T10:26:00,ths,7.75
2023-09-10T10:27:00,ths,7.72
2023-09-10T10:28:00,ths,7.85
2023-09-10T10:29:00,ths,7.96
2023-09-10T10:30:00,ths,8.00
2023-09-10T10:31:00,ths,8.00
2023-09-10T10:32:00,ths,10.52
2023-09-10T10:33:00,ths,10.41
2023-09-10T10:34:00,ths,10.41
2023-09-10T10:35:00,ths,10.37
2023-09-10T10:36:00,ths,10.83
2023-09-10T10:37:00,ths,8.02
2023-09-10T10:38:00,ths,10.09
2023-09-10T10:39:00,ths,10.21
2023-09-10T10:40:00,ths,10.05
2023-09-10T10:41:00,ths,11.73
2023-09-10T10:42:00,ths,11.62
2023-09-10T10:43:00,ths,11.73
2023-09-10T10:44:00,ths,11.72
2023-09-10T10:45:00,ths,11.94
2023-09-10T10:46:00,ths,9.79
2023-09-10T10:47:00,ths,9.86
2023-09-10T10:48:00,ths,7.90
2023-09-10T10:49:00,ths,7.84
2023-09-10T10:50:00,ths,7.87
2023-09-10T10:51:00,ths,7.84
2023-09-10T10:52:00,ths,7.82
2023-09-10T10:53:00,ths,7.85
2023-09-10T10:54:00,ths,12.60
2023-09-10T10:55:00,ths,12.35
2023-09-10T10:56:00,ths,12.37
2023-09-10T10:57:00,ths,12.29
2023-09-10T10:58:00,ths,14.48
2023-09-10T10:59:00,ths,14.53
2023-09-10T11:00:00,ths,14.51
2023-09-10T11:01:00,ths,14.61
2023-09-10T11:02:00,ths,16.67
2023-09-10T11:03:00,ths,16.76
2023-09-10T11:04:00,ths,14.47
2023-09-10T11:05:00,ths,14.41
2023-09-10T11:06:00,ths,14.46
2023-09-10T11:07:00,ths,14.44
2023-09-10T11:08:00,ths,14.69
2023-09-10T11:09:00,ths,14.51
2023-09-10T11:10:00,ths,14.37
2023-09-10T11:11:00,ths,14.30
2023-09-10T11:12:00,ths,16.84
2023-09-10T11:13:00,ths,16.88
2023-09-10T11:14:00,ths,16.15
2023-09-10T11:15:00,ths,13.97
2023-09-10T11:16:00,ths,14.03
2023-09-10T11:17:00,ths,14.02
2023-09-10T11:18:00,ths,11.49
2023-09-10T11:19:00,ths,11.53
2023-09-10T11:20:00,ths,11.58
2023-09-10T11:21:00,ths,11.61
2023-09-10T11:22:00,ths,11.75
2023-09-10T11:23:00,ths,13.82
2023-09-10T11:24:00,ths,15.88
2023-09-10T11:25:00,ths,16.13
2023-09-10T11:26:00,ths,15.97
2023-09-10T11:27:00,ths,15.97
2023-09-10T11:28:00,ths,15.83
2023-09-10T11:29:00,ths,15.90
2023-09-10T11:30:00,ths,15.96
2023-09-10T11:31:00,ths,16.18
2023-09-10T11:32:00,ths,16.16
2023-09-10T11:33:00,ths,16.10
2023-09-10T11:34:00,ths,15.55
2023-09-10T11:35:00,ths,9.18
2023-09-10T11:36:00,ths,9.29
2023-09-10T11:37:00,ths,7.65
2023-09-10T11:38:00,ths,11.72
2023-09-10T11:39:00,ths,11.77
2023-09-10T11:40:00,ths,11.75
2023-09-10T11:41:00,ths,7.58
2023-09-10T11:42:00,ths,7.51
2023-09-10T11:43:00,ths,7.57
2023-09-10T11:44:00,ths,10.28
2023-09-10T11:45:00,ths,14.24
2023-09-10T11:46:00,ths,16.09
2023-09-10T11:47:00,ths,14.20
2023-09-10T11:48:00,ths,10.16
2023-09-10T11:49:00,ths,10.17
2023-09-10T11:50:00,ths,7.49
2023-09-10T11:51:00,ths,7.46
2023-09-10T11:52:00,ths,7.52
2023-09-10T11:53:00,ths,7.46
2023-09-10T11:54:00,ths,7.21
2023-09-10T11:55:00,ths,7.18
2023-09-10T11:56:00,ths,7.16
2023-09-10T11:57:00,ths,7.16
2023-09-10T11:58:00,ths,7.10
2023-09-10T11:59:00,ths,7.21
2023-09-10T12:00:00,ths,7.21
2023-09-10T12:01:00,ths,7.16
2023-09-10T12:02:00,ths,7.23
2023-09-10T12:03:00,ths,7.13
2023-09-10T12:04:00,ths,7.12
2023-09-10T12:05:00,ths,7.10
2023-09-10T12:06:00,ths,7.08
2023-09-10T12:07:00,ths,7.06
2023-09-10T12:08:00,ths,9.15
2023-09-10T12:09:00,ths,9.13
2023-09-10T12:10:00,ths,9.15
2023-09-10T12:11:00,ths,9.20
2023-09-10T12:12:00,ths,9.22
2023-09-10T12:13:00,ths,7.16
2023-09-10T12:14:00,ths,9.38
2023-09-10T12:15:00,ths,11.54
2023-09-10T12:16:00,ths,11.49
2023-09-10T12:17:00,ths,11.53
2023-09-10T12:18:00,ths,11.54
2023-09-10T12:19:00,ths,14.01
2023-09-10T12:20:00,ths,9.90
2023-09-10T12:21:00,ths,9.74
2023-09-10T12:22:00,ths,9.72
2023-09-10T12:23:00,ths,9.61
2023-09-10T12:24:00,ths,9.48
2023-09-10T12:25:00,ths,9.62
2023-09-10T12:26:00,ths,7.00
2023-09-10T12:27:00,ths,6.91
2023-09-10T12:28:00,ths,6.94
2023-09-10T12:29:00,ths,6.94
2023-09-10T12:30:00,ths,6.90
2023-09-10T12:31:00,ths,7.00
2023-09-10T12:32:00,ths,7.17
2023-09-10T12:33:00,ths,7.30
2023-09-10T12:34:00,ths,7.25
2023-09-10T12:35:00,ths,7.23
2023-09-10T12:36:00,ths,7.25
2023-09-10T12:37:00,ths,7.24
2023-09-10T12:38:00,ths,7.23
2023-09-10T12:39:00,ths,7.20
2023-09-10T12:40:00,ths,7.11
2023-09-10T12:41:00,ths,7.14
2023-09-10T12:42:00,ths,7.12
2023-09-10T12:43:00,ths,7.08
2023-09-10T12:44:00,ths,7.11
2023-09-10T12:45:00,ths,7.03
2023-09-10T12:46:00,ths,7.03
2023-09-10T12:47:00,ths,9.28
2023-09-10T12:48:00,ths,9.39
2023-09-10T12:49:00,ths,11.99
2023-09-10T12:50:00,ths,12.08
2023-09-10T12:51:00,ths,12.01
2023-09-10T12:52:00,ths,9.71
2023-09-10T12:53:00,ths,9.71
2023-09-10T12:54:00,ths,9.80
2023-09-10T12:55:00,ths,10.27
2023-09-10T12:56:00,ths,7.19
2023-09-10T12:57:00,ths,7.29
2023-09-10T12:58:00,ths,7.40
2023-09-10T12:59:00,ths,9.54
2023-09-10T13:00:00,ths,9.49
2023-09-10T13:01:00,ths,9.73
2023-09-10T13:02:00,ths,9.74
2023-09-10T13:03:00,ths,9.79
2023-09-10T13:04:00,ths,9.79
2023-09-10T13:05:00,ths,7.51
2023-09-10T13:06:00,ths,7.66
2023-09-10T13:07:00,ths,7.49
2023-09-10T13:08:00,ths,7.53
2023-09-10T13:09:00,ths,7.75
2023-09-10T13:10:00,ths,7.44
2023-09-10T13:11:00,ths,7.32
2023-09-10T13:12:00,ths,7.41
2023-09-10T13:13:00,ths,7.52
2023-09-10T13:14:00,ths,7.57
2023-09-10T13:15:00,ths,9.69
2023-09-10T13:16:00,ths,12.49
2023-09-10T13:17:00,ths,12.51
2023-09-10T13:18:00,ths,12.39
2023-09-10T13:19:00,ths,12.50
2023-09-10T13:20:00,ths,12.31
2023-09-10T13:21:00,ths,10.00
2023-09-10T13:22:00,ths,10.19
2023-09-10T13:23:00,ths,7.64
2023-09-10T13:24:00,ths,10.00
2023-09-10T13:25:00,ths,10.08
2023-09-10T13:26:00,ths,10.03
2023-09-10T13:27:00,ths,10.03
2023-09-10T13:28:00,ths,10.02
2023-09-10T13:29:00,ths,9.82
2023-09-10T13:30:00,ths,7.53
2023-09-10T13:31:00,ths,7.50
2023-09-10T13:32:00,ths,7.89
2023-09-10T13:33:00,ths,7.85
2023-09-10T13:34:00,ths,7.85
2023-09-10T13:35:00,ths,7.80
2023-09-10T13:36:00,ths,7.67